[[{"header":{"parameterUnit":"m.s-1","parameterCategory":1,"la1":30.2991,"la2":30.254,"lo1":-89.0895,"lo2":-89.0444,"dy":0.0017,"dx":0.0017,"nx":28,"ny":28,"refTime":"2025-08-22T09:00:00:Z","depth":0,"parameterNumber":2,"parameterNumberName":"U-component_of_WINDS"},"data":[0,0,0,0,0,0,0,0,0,0,0,0,0,0,0,0,0,0,0,0,0,0,0,0,0,0,0,0,0,0,0,0,0,0,0,0,0,0,0,0,0,0,0,0,0,0,0,0,0,0,0,0,0,0,0,0,0,0,-0.8481,-0.8481,0,-0.8515,-0.8516,-0.8516,-0.8481,-0.848,-0.8478,-0.8477,-0.8515,-0.8517,-0.8519,0,0,0,0,0,0,0,0,0,0,0,0,0,-0.8387,-0.8389,-0.8481,-0.8481,-0.8482,-0.8515,-0.8516,-0.8516,-0.8481,-0.848,-0.8478,-0.8477,-0.8514,-0.8517,-0.8519,0,0,0,0,0,0,0,0,0,0,0,0,0,-0.8425,-0.8389,-0.8481,-0.8468,-0.8467,-0.8515,-0.8516,-0.8516,-0.8482,-0.848,-0.8478,-0.8476,-0.8513,-0.8516,-0.852,-0.8582,0,0,-0.853,-0.8532,0,0,0,0,0,0,0,0,-0.8423,-0.8429,-0.847,-0.8469,-0.8468,-0.8492,-0.8496,-0.8538,-0.8482,-0.8476,-0.8477,-0.8475,-0.8509,-0.8512,-0.8524,-0.8584,-0.8585,-0.853,-0.8533,-0.8534,-0.8535,0,0,0,0,0,0,0,-0.842,-0.8427,-0.8494,-0.847,-0.847,-0.8462,-0.8465,-0.8504,-0.8504,-0.8477,-0.8474,-0.8479,-0.8508,-0.852,-0.8524,-0.8586,-0.853,-0.8533,-0.8535,-0.8537,-0.8699,-0.8702,0,0,0,0,0,0,-0.8419,-0.8425,-0.8493,-0.8495,-0.844,-0.8465,-0.8469,-0.8486,-0.8503,-0.8504,-0.848,-0.8477,-0.8516,-0.852,-0.8525,-0.8599,-0.8534,-0.8537,-0.8539,-0.8697,-0.87,-0.8702,0,0,0,0,0,0,-0.8417,-0.8425,-0.8492,-0.846,-0.8467,-0.8469,-0.8489,-0.8488,-0.85,-0.8506,-0.8506,-0.8493,-0.8514,-0.8521,-0.8568,-0.86,-0.8539,-0.8542,-0.8694,-0.8698,-0.8701,-0.8748,0,0,0,0,0,0,-0.8414,-0.8425,-0.8448,-0.846,-0.8469,-0.8534,-0.8491,-0.849,-0.8506,-0.8502,-0.8518,-0.8518,-0.8513,-0.8563,-0.8571,-0.8604,-0.8544,-0.8692,-0.8696,-0.87,-0.8744,-0.8753,-0.8761,0,0,0,0,0,-0.8411,-0.846,-0.8449,-0.8458,-0.8498,-0.8536,-0.8541,-0.8533,-0.8509,-0.8532,-0.8536,-0.8518,-0.8595,-0.8568,-0.8577,-0.8611,-0.8689,-0.8695,-0.87,-0.874,-0.8751,-0.876,0,0,0,0,0,0,-0.8452,-0.8462,-0.845,-0.8504,-0.8519,-0.853,-0.8559,-0.8545,-0.8568,-0.8563,-0.8553,-0.8557,-0.8607,-0.8614,-0.8584,-0.8673,-0.8639,-0.8646,-0.8666,-0.8677,-0.8685,-0.8682,-0.8547,0,0,0,0,0,-0.8467,-0.8496,-0.8503,-0.8551,-0.8559,-0.8558,-0.8574,-0.8566,-0.8582,-0.8588,-0.8596,-0.8612,-0.864,-0.8659,-0.8685,-0.8745,-0.8748,-0.8773,-0.8781,-0.8788,-0.8794,-0.8827,-0.8838,-0.8719,-0.8719,-0.8719,0,0,-0.85,-0.8508,-0.8527,-0.8559,-0.857,-0.8601,-0.8563,-0.8597,-0.862,-0.8594,-0.8639,-0.8645,-0.8663,-0.8717,-0.8741,-0.8724,-0.8828,-0.8794,-0.88,-0.8802,-0.8833,-0.8844,-0.8854,-0.8723,-0.8722,-0.8721,0,0,-0.8574,-0.8583,-0.8623,-0.8635,-0.8652,-0.8651,-0.8661,-0.8673,-0.8676,-0.8721,-0.8702,-0.8729,-0.8778,-0.8791,-0.8804,-0.8884,-0.8868,-0.8893,-0.8937,-0.8969,-0.8978,-0.8986,-0.9015,-0.9025,-0.8899,-0.8899,-0.89,0,-0.8612,-0.8656,-0.8646,-0.8682,-0.8697,-0.8673,-0.8715,-0.8727,-0.8752,-0.8763,-0.8743,-0.8804,-0.8814,-0.8871,-0.889,-0.8902,-0.8913,-0.8891,-0.8977,-0.8985,-0.8993,-0.902,-0.9031,-0.8902,-0.8902,-0.8902,-0.8901,0,-0.8702,-0.8734,-0.8765,-0.8788,-0.8807,-0.8845,-0.8842,-0.8862,-0.8853,-0.8854,-0.8901,-0.8912,-0.894,-0.8953,-0.8945,-0.9009,-0.8998,-0.8978,-0.8944,-0.9007,-0.9033,-0.9043,-0.8906,-0.8905,-0.8905,-0.8904,0,0,-0.8803,-0.8821,-0.8832,-0.8843,-0.886,-0.8884,-0.8922,-0.8949,-0.8966,-0.8984,-0.9016,-0.9058,-0.9039,-0.9054,-0.9048,-0.9075,-0.9138,-0.9052,-0.9052,-0.9068,-0.921,-0.9225,-0.9237,-0.9128,-0.913,-0.9131,-0.9208,0,-0.8877,-0.8942,-0.8934,-0.8996,-0.9025,-0.9004,-0.9036,-0.9051,-0.9053,-0.9079,-0.9082,-0.9112,-0.9085,-0.9094,-0.912,-0.9125,-0.9166,-0.9119,-0.9158,-0.9159,-0.9154,-0.925,-0.9266,-0.9338,-0.9218,-0.922,-0.9221,0,-0.8973,-0.8994,-0.9058,-0.9071,-0.9083,-0.9112,-0.9136,-0.9161,-0.9177,-0.9177,-0.9194,-0.9183,-0.9221,-0.9186,-0.9239,-0.9207,-0.9223,-0.9227,-0.923,-0.9233,-0.9194,-0.9256,-0.9361,-0.9371,-0.9236,-0.9235,-0.9234,0,-0.904,-0.9084,-0.9128,-0.9138,-0.9154,-0.9175,-0.9183,-0.9197,-0.9214,-0.9235,-0.9246,-0.9272,-0.9286,-0.9307,-0.9303,-0.9278,-0.9358,-0.9322,-0.9359,-0.9359,-0.9377,-0.9376,-0.9486,-0.9387,-0.9387,-0.9387,-0.9386,0,-0.9124,-0.9164,-0.9159,-0.9186,-0.9231,-0.9222,-0.9267,-0.9272,-0.9285,-0.9313,-0.9297,-0.9324,-0.9317,-0.9345,-0.9342,-0.9387,-0.9393,-0.9395,-0.9393,-0.9396,-0.9396,-0.9406,-0.9401,-0.939,-0.9389,-0.9388,-0.9388,0,-0.9206,-0.9204,-0.9251,-0.9262,-0.9266,-0.9298,-0.9308,-0.9334,-0.9335,-0.9371,-0.9379,-0.9382,-0.9413,-0.9411,-0.9447,-0.9445,-0.95,-0.9493,-0.9494,-0.9493,-0.953,-0.9526,-0.965,-0.9665,-0.9557,-0.9558,-0.9559,0,-0.926,-0.929,-0.9304,-0.9322,-0.9331,-0.9359,-0.9376,-0.9369,-0.9387,-0.9408,-0.9432,-0.9462,-0.9485,-0.9536,-0.9541,-0.9568,-0.9562,-0.9603,-0.9566,-0.9568,-0.9563,-0.9561,-0.9564,-0.9611,-0.9612,-0.9613,-0.9614,0,-0.9355,-0.9353,-0.9377,-0.9402,-0.9422,-0.9441,-0.9459,-0.9474,-0.9469,-0.9491,-0.9522,-0.954,-0.9576,-0.9606,-0.9632,-0.964,-0.9627,-0.9625,-0.9635,-0.9638,-0.9638,-0.9639,-0.9514,-0.9623,-0.9622,-0.9621,-0.9621,-0.962,-0.9425,-0.9451,-0.9465,-0.9493,-0.9505,-0.9522,-0.9547,-0.9551,-0.9577,-0.9605,-0.9599,-0.9635,-0.9651,-0.9684,-0.9695,-0.9723,-0.9709,-0.9723,-0.9727,-0.9731,-0.9735,-0.9633,-0.9728,-0.9728,-0.9728,-0.9728,-0.9727,0,-0.9519,-0.9527,-0.9553,-0.9578,-0.96,-0.9584,-0.9603,-0.9623,-0.9654,-0.9669,-0.9692,-0.9729,-0.9758,-0.9765,-0.9793,-0.9814,-0.9809,-0.9822,-0.982,-0.9822,-0.9746,-0.9735,-0.9826,-0.9826,-0.9826,-0.9826,-0.9826,-0.9826,-0.9571,-0.9614,-0.9614,-0.9663,-0.9671,-0.9705,-0.9717,-0.9733,-0.9745,-0.9786,-0.981,-0.9814,-0.9827,-0.9855,-0.9881,-0.9883,-0.9894,-0.991,-0.9909,-0.9838,-0.9828,-0.9818,-0.9807,-0.9912,-0.9912,-0.9983,-0.9983,-0.9984]},{"header":{"parameterUnit":"m.s-1","parameterCategory":1,"la1":30.2991,"la2":30.254,"lo1":-89.0895,"lo2":-89.0444,"dy":0.0017,"dx":0.0017,"nx":28,"ny":28,"refTime":"2025-08-22T09:00:00:Z","depth":0,"parameterNumber":3,"parameterNumberName":"V-component_of_WINDS"},"data":[0,0,0,0,0,0,0,0,0,0,0,0,0,0,0,0,0,0,0,0,0,0,0,0,0,0,0,0,0,0,0,0,0,0,0,0,0,0,0,0,0,0,0,0,0,0,0,0,0,0,0,0,0,0,0,0,0,0,-0.2963,-0.2963,0,-0.2965,-0.2965,-0.2965,-0.2951,-0.2951,-0.2951,-0.295,-0.2954,-0.2954,-0.2954,0,0,0,0,0,0,0,0,0,0,0,0,0,-0.2951,-0.2951,-0.2963,-0.2963,-0.2963,-0.2965,-0.2965,-0.2965,-0.2951,-0.2951,-0.2951,-0.295,-0.2953,-0.2954,-0.2955,0,0,0,0,0,0,0,0,0,0,0,0,0,-0.2954,-0.2951,-0.2963,-0.2957,-0.2956,-0.2965,-0.2965,-0.2965,-0.2952,-0.2951,-0.295,-0.295,-0.2953,-0.2954,-0.2955,-0.297,0,0,-0.2957,-0.2957,0,0,0,0,0,0,0,0,-0.2954,-0.2955,-0.2958,-0.2957,-0.2957,-0.2957,-0.2961,-0.2966,-0.2952,-0.2953,-0.295,-0.295,-0.2955,-0.2956,-0.2957,-0.297,-0.297,-0.2957,-0.2957,-0.2957,-0.2957,0,0,0,0,0,0,0,-0.2954,-0.2955,-0.2964,-0.2958,-0.2957,-0.2954,-0.2954,-0.2962,-0.2958,-0.2953,-0.2952,-0.2952,-0.2955,-0.2957,-0.2957,-0.297,-0.2957,-0.2957,-0.2958,-0.2958,-0.2994,-0.2995,0,0,0,0,0,0,-0.2954,-0.2955,-0.2964,-0.2964,-0.2954,-0.2955,-0.2955,-0.2958,-0.2957,-0.2957,-0.2953,-0.2952,-0.2956,-0.2957,-0.2957,-0.2975,-0.2957,-0.2958,-0.2958,-0.2994,-0.2995,-0.2995,0,0,0,0,0,0,-0.2954,-0.2955,-0.2964,-0.2959,-0.296,-0.2956,-0.2959,-0.2958,-0.296,-0.2957,-0.2956,-0.2956,-0.2956,-0.2957,-0.2966,-0.2975,-0.2958,-0.2959,-0.2993,-0.2994,-0.2995,-0.3009,0,0,0,0,0,0,-0.2954,-0.2955,-0.2961,-0.2959,-0.296,-0.2972,-0.2959,-0.2958,-0.2961,-0.2959,-0.2959,-0.2959,-0.2955,-0.2966,-0.2967,-0.2975,-0.2959,-0.2992,-0.2994,-0.2995,-0.3008,-0.3011,-0.3013,0,0,0,0,0,-0.2953,-0.2965,-0.2961,-0.2962,-0.2967,-0.2973,-0.2973,-0.2968,-0.2961,-0.2967,-0.2965,-0.2959,-0.2973,-0.2967,-0.2968,-0.2977,-0.2992,-0.2993,-0.2995,-0.3007,-0.301,-0.3013,0,0,0,0,0,0,-0.2968,-0.2965,-0.296,-0.2972,-0.2973,-0.297,-0.2977,-0.2972,-0.2975,-0.2974,-0.2968,-0.2968,-0.2979,-0.2979,-0.2971,-0.2991,-0.2982,-0.2983,-0.2991,-0.2993,-0.2996,-0.2995,-0.296,0,0,0,0,0,-0.2973,-0.2978,-0.2975,-0.2985,-0.2986,-0.2981,-0.2984,-0.298,-0.2981,-0.2981,-0.298,-0.2982,-0.2987,-0.299,-0.2995,-0.3008,-0.3008,-0.3015,-0.3017,-0.3019,-0.302,-0.3027,-0.303,-0.3,-0.3,-0.3,0,0,-0.2983,-0.2981,-0.2985,-0.2988,-0.2988,-0.2994,-0.2982,-0.2988,-0.2992,-0.2982,-0.2991,-0.2991,-0.2992,-0.3004,-0.3009,-0.3004,-0.3029,-0.3021,-0.3022,-0.3023,-0.3029,-0.3032,-0.3034,-0.3,-0.3,-0.3,0,0,-0.3003,-0.3002,-0.3011,-0.3011,-0.3011,-0.3008,-0.301,-0.3009,-0.3008,-0.3017,-0.3009,-0.3014,-0.3023,-0.3024,-0.3026,-0.3046,-0.304,-0.3048,-0.306,-0.3066,-0.3069,-0.3071,-0.3077,-0.308,-0.3049,-0.3049,-0.3049,0,-0.3015,-0.3022,-0.3016,-0.3022,-0.3024,-0.3015,-0.3023,-0.3024,-0.3026,-0.3028,-0.3022,-0.3032,-0.3033,-0.3044,-0.3049,-0.3051,-0.3053,-0.3047,-0.3069,-0.3071,-0.3073,-0.3079,-0.3082,-0.305,-0.305,-0.305,-0.305,0,-0.3037,-0.3042,-0.3049,-0.305,-0.3052,-0.306,-0.3055,-0.3059,-0.3054,-0.3052,-0.3061,-0.3061,-0.3065,-0.3068,-0.3064,-0.3079,-0.3076,-0.307,-0.306,-0.3076,-0.3082,-0.3085,-0.3051,-0.3051,-0.3051,-0.305,0,0,-0.3066,-0.3064,-0.3066,-0.3066,-0.3066,-0.307,-0.3077,-0.308,-0.3083,-0.3085,-0.3091,-0.3098,-0.3092,-0.3094,-0.309,-0.3096,-0.3112,-0.3089,-0.3089,-0.3093,-0.3127,-0.3132,-0.3135,-0.3108,-0.3108,-0.3109,-0.3127,0,-0.3086,-0.3097,-0.3092,-0.3104,-0.3108,-0.31,-0.3106,-0.3106,-0.3105,-0.3109,-0.3107,-0.3112,-0.3104,-0.3105,-0.311,-0.3109,-0.3118,-0.3107,-0.3113,-0.3114,-0.3113,-0.3138,-0.3142,-0.316,-0.3129,-0.313,-0.313,0,-0.3109,-0.3111,-0.3124,-0.3122,-0.3123,-0.3129,-0.3131,-0.3135,-0.3136,-0.3134,-0.3136,-0.3131,-0.3138,-0.3128,-0.3138,-0.3131,-0.3133,-0.3133,-0.3133,-0.3133,-0.3123,-0.3138,-0.3165,-0.3168,-0.3134,-0.3134,-0.3133,0,-0.3129,-0.3135,-0.3143,-0.3143,-0.3141,-0.3146,-0.3145,-0.3145,-0.3147,-0.3149,-0.3151,-0.3154,-0.3156,-0.3159,-0.3154,-0.3148,-0.3165,-0.3155,-0.3164,-0.3164,-0.3167,-0.3167,-0.3195,-0.317,-0.3169,-0.3169,-0.3169,0,-0.3151,-0.3159,-0.3151,-0.3156,-0.3165,-0.3159,-0.3168,-0.3166,-0.3166,-0.3171,-0.3164,-0.3169,-0.3163,-0.3168,-0.3165,-0.3173,-0.3174,-0.3173,-0.3172,-0.3173,-0.3173,-0.3174,-0.3173,-0.317,-0.317,-0.317,-0.317,0,-0.3174,-0.317,-0.3178,-0.3175,-0.3175,-0.3181,-0.3179,-0.3184,-0.3181,-0.3187,-0.3188,-0.3184,-0.3189,-0.3185,-0.319,-0.3188,-0.3199,-0.3197,-0.3199,-0.3198,-0.3206,-0.3205,-0.3235,-0.3239,-0.3212,-0.3212,-0.3212,0,-0.3188,-0.3194,-0.3192,-0.3194,-0.3194,-0.3198,-0.3199,-0.3194,-0.3196,-0.3197,-0.3201,-0.3205,-0.3208,-0.3216,-0.3214,-0.3217,-0.3215,-0.3225,-0.3215,-0.3216,-0.3214,-0.3214,-0.3214,-0.3227,-0.3227,-0.3227,-0.3227,0,-0.3213,-0.321,-0.3213,-0.3215,-0.3217,-0.3219,-0.322,-0.3222,-0.3216,-0.3219,-0.3223,-0.3226,-0.323,-0.3234,-0.3237,-0.3236,-0.3231,-0.3231,-0.3233,-0.3234,-0.3234,-0.3234,-0.3203,-0.323,-0.323,-0.3229,-0.3229,-0.3229,-0.3232,-0.3236,-0.3235,-0.3238,-0.3238,-0.3239,-0.3243,-0.3241,-0.3244,-0.3247,-0.3243,-0.3249,-0.3249,-0.3252,-0.3252,-0.3256,-0.3252,-0.3255,-0.3256,-0.3257,-0.3258,-0.3234,-0.3257,-0.3257,-0.3257,-0.3257,-0.3257,0,-0.3256,-0.3255,-0.3258,-0.3259,-0.3261,-0.3255,-0.3256,-0.3259,-0.3263,-0.3263,-0.3266,-0.3271,-0.3274,-0.3272,-0.3276,-0.3279,-0.3277,-0.328,-0.328,-0.328,-0.3261,-0.3259,-0.3282,-0.3282,-0.3282,-0.3282,-0.3282,-0.3282,-0.3269,-0.3276,-0.3273,-0.328,-0.3279,-0.3283,-0.3284,-0.3285,-0.3285,-0.3291,-0.3293,-0.3292,-0.3291,-0.3294,-0.3297,-0.3297,-0.3298,-0.3302,-0.3301,-0.3284,-0.3281,-0.3279,-0.3276,-0.3303,-0.3303,-0.3319,-0.3319,-0.3319]}]]